DMSP 5D-2 F13 DEB

Satellite information

Favourite Embed

Satellite Type and Status

DEBRISIN ORBIT

Key statistics

Satellite DMSP 5D-2 F13 DEB at a glance.

Uptime

11003

Days in orbit

Revolutions

≈ 14.2

Per day

Orbit

SSO

Sun Synchronous Orbit

Inclination

98.7

Latest

Satellite identification and parameters

Extended collection of information and parameters for DMSP 5D-2 F13 DEB.

Object identification

Identified? True

Debris? True

Object name: DMSP 5D-2 F13 DEB

International designator: 1995-015CV

Object number (NORAD): 40509

Object ID (CCSDS): 40509

Country: UNITED STATES OF AMERICA (US)

Current information (Y/N): Y

RCS size: SMALL

Orbital parameters

Period: 101.236 minutes

Inclination: 98.6653 deg

SMA: 7195.344 km

Apoapsis: 834.997 km

Periapsis: 799.42 km

RAAN: 145.7473 deg

Eccentricy: 0.0024722

Argument of periapsis: 73.1321 deg

Mean anomaly: 287.2566 deg

Mean motion: 14.22412103 rev/day

Mean motion (dot): 0.0000069 rev/day2

B* drag term: 0.00032841 1/REarth

Two-line elements (TLE)

Creation date: May 8, 2025, 3:01 a.m.

Reference frame: TEME

Reference center: EARTH

Epoch: May 7, 2025, 11:50 a.m. UTC

TLE line 0: 0 DMSP 5D-2 F13 DEB

TLE line 1: 1 40509U 95015CV 25127.49367312 .00000690 00000-0 32841-3 0 9996

TLE line 2: 2 40509 98.6653 145.7473 0024722 73.1321 287.2566 14.22412103524964

Live tracking on map

Real-time ground track for satellite DMSP 5D-2 F13 DEB.

In-orbit conjunctions

A list of the most updated potential collisions computed for object DMSP 5D-2 F13 DEB.

Target Orbit TCA Probability of collision Miss distance Type
THOR BURNER 2 R/B SSO 2025-04-20 15:30:56 0.0001489908 156.0 (m) ROCKET BODY
FENGYUN 1C DEB SSO 2025-01-22 02:12:58 0.0001032162 258.0 (m) DEBRIS
CZ-6A DEB LEO 2025-01-17 01:29:10 0.0002171495 739.0 (m) DEBRIS
DELTA 1 DEB SSO 2024-11-26 10:55:36 0.0001220032 62.0 (m) DEBRIS

Associated space launch

Military meteorological satellite

DMSP 5D-2 F13 DEB was lifted into orbit during the mission ‘Atlas E | DMSP-5D2 F13’, on board a Atlas E space rocket.

The launch took place on March 24, 1995, 2:05 p.m. from Space Launch Complex 3W.

For more information about the launch, click the button.

Launch to space Atlas E | DMSP-5D2 F13
Atlas E | DMSP-5D2 F13

Agency: N/A

Status: Launch Successful

Launch date: March 24, 1995, 2:05 p.m. UTC

Rocket: Atlas E

Launch pad: Space Launch Complex 3W

Location: Vandenberg SFB, CA, USA

...

Latest news about this satellite

There are no fresh news available about this satellite. Check back as we update our databases every day.


Newsletter sign-up

Weekly statistics, charts and insights to help you stay on top of the space industry.